Regional Weather Roundup
Issued by NWS Pendleton, OR

Home | Current Version | Previous Version | Text Only | Print | Product List | Glossary On
Versions: 1 2 3 4 5 6 7 8 9 10 11 12 13 14 15 16 17 18 19 20 21 22 23 24 25 26 27 28 29 30 31 32 33 34 35 36 37 38 39 40 41 42 43 44 45 46 47 48 49 50
000
ASUS46 KPDT 060604
RWRPDT
PENDLETON REGIONAL WEATHER ROUNDUP
NATIONAL WEATHER SERVICE PENDLETON OREGON
1000 PM PST MON DEC 5 2016

NOTE: FAIR INDICATES FEW OR NO CLOUDS BELOW 12,000 FEET WITH NO
SIGNIFICANT WEATHER AND/OR OBSTRUCTIONS TO VISIBILITY.

# INDICATES UNOFFICIAL STATION AND DATA

WAZ520-060710-
EAST SLOPES OF WASHINGTON CASCADES

CITY            SKY/WX      TMP DP  RH  WIND    PRES   REMARKS
#CLE ELUM HS    N/A         26  22  85  CALM    29.91S
#CLE ELUM LAKE  N/A         22  21  96  CALM    30.02S
#GLENWOOD       N/A         28  26  92  CALM    30.01S
#MANASTASH CYN  N/A         25  20  81  CALM    29.90R
#NELSON 3SW     N/A         20  18  92  CALM    30.25S
#NILE           N/A         24  21  88  W1      29.28S
#RONALD 2NW     N/A         22  N/A N/A W1      29.89S
#TEANAWAY 4NE   N/A         23  21  92  CALM    N/A
#TROUT LAKE 1NE N/A         28  26  92  CALM    30.02S
#TROUT LAKE 1E  N/A         28  27  96  CALM    29.91S
$$

WAZ521-060710-
SIMCOE HIGHLANDS

CITY            SKY/WX      TMP DP  RH  WIND    PRES   REMARKS
#CENTERVILLE 1SWN/A         28  25  88  CALM    29.98F
#GOLDENDALE 1NE N/A         29  25  85  CALM    N/A
#GOLDENDALE 4W  N/A         30  25  81  CALM    29.97S
#GOODNOE HILLS  N/A         31  27  85  W8      29.86R
#LYLE 6NE       N/A         30  29  96  CALM    29.98S
$$

WAZ026-060710-
KITTITAS VALLEY

CITY            SKY/WX      TMP DP  RH  WIND    PRES   REMARKS
ELLENSBURG AP   PTCLDY      24  21  88  N5      29.96S
6HR MIN TEMP:   24; 6HR MAX TEMP:   31; 6HR PCP:  TRACE;

#ELLENSBURG CWU N/A         27  25  92  CALM    29.98S
#ELLENSBURG 3NE N/A         21  19  92  CALM    28.04S
#ELLENSBURG 1E  N/A         26  N/A N/A CALM    N/A
#KITTITAS 4N    N/A         26  23  88  CALM    29.99S
#KITTITAS 3S    N/A         27  25  92  CALM    30.04R
#THORP 6N       N/A         22  20  92  NW1     30.06R
$$

WAZ027-060710-
YAKIMA VALLEY

CITY            SKY/WX      TMP DP  RH  WIND    PRES   REMARKS
SUNNYSIDE AP    CLOUDY      32  30  92  W3      30.00R
6HR MIN TEMP:   31; 6HR MAX TEMP:   33;

YAKIMA AIRPORT  MOCLDY      34  27  75  N5      29.98S
6HR MIN TEMP:   28; 6HR MAX TEMP:   34; 6HR PCP:  TRACE;

YAKIMA-VAGABOND CLOUDY      31  25  78  N6      29.95S
6HR MIN TEMP:   28; 6HR MAX TEMP:   31; 6HR PCP:  0.01;

#DONALD 2NE     N/A         32  18  56  NW2     28.82F
#GRANDVIEW      N/A         30  25  81  SE1     30.05R
#MABTON         N/A         32  27  82  CALM    29.99S
#NACHES 2SW     N/A         30  27  88  E1      29.94S
#TERRACE HTS    N/A         31  28  88  CALM    30.00S
#TOPPENISH      N/A         30  25  81  CALM    29.95S
#WEST VALLEY    N/A         31  26  81  CALM    30.03R
#W YAKIMA       N/A         31  26  81  CALM    30.04R
#WHITE SWAN 5E  N/A         26  23  88  CALM    30.06R
#WILEY CITY 3W  N/A         30  23  75  CALM    29.93S
$$

WAZ028-060710-
LOWER COLUMBIA BASIN...WASHINGTON

CITY            SKY/WX      TMP DP  RH  WIND    PRES   REMARKS
PASCO           LGT SNOW    32  32  100 NW10    30.01S FOG
6HR MIN TEMP:   32; 6HR MAX TEMP:   38; 6HR PCP:  0.05;

PROSSER AWOS    N/A         32  28  85  W3      30.03S
RICHLAND AWOS   LGT SNOW    33  32  96  NW9     30.02S
#BENTON CITY    N/A         31  30  96  CALM    29.93S
#CONNELL 5N     N/A         31  30  96  CALM    30.04S
#CONNELL 5NW    N/A         31  30  96  CALM    29.99S
#ELTOPIA 6NW    N/A         31  30  96  CALM    28.95S
#KAHLOTUS       N/A         31  30  96  S8      30.02S
#KENNEWICK 3S   N/A         31  29  92  CALM    30.03S
#PATERSON       N/A         34  32  92  E1      30.00S
#SAGEMOOR 2W    N/A         31  29  92  CALM    29.87S
#TOUCHET 2S     N/A         33  31  92  CALM    29.99S
#WEST PASCO     N/A         33  30  89  NW2     30.01F
$$

WAZ029-060710-
FOOTHILLS OF THE BLUES...WASHINGTON

CITY            SKY/WX      TMP DP  RH  WIND    PRES   REMARKS
WALLA WALLA AP  LGT SNOW    32  30  92  CALM    29.95F FOG
6HR MIN TEMP:   32; 6HR MAX TEMP:   35; 6HR PCP:  0.02;

#CLYDE 6NW      N/A         31  30  96  CALM    30.01F
#DAYTON SCHOOL  N/A         31  24  75  CALM    29.97S
#LOWDEN 2SE     N/A         33  31  92  E2      29.96S
#PLEASANT VIEW 1N/A         29  28  96  CALM    30.06F
#PRESCOTT       N/A         32  30  92  CALM    30.01S
#WHITMAN COLLEGEN/A         33  31  92  CALM    30.05F
#WAITSBURG 5S   N/A         30  28  92  CALM    30.11S
#WAITSBURG 8N   N/A         30  N/A N/A N2      29.96S
#WALLA WALLA U  N/A         34  32  92  CALM    30.01F
#WHITMAN MISSIONN/A         34  31  89  CALM    30.01F
$$

WAZ030-060710-
BLUE MOUNTAINS...WASHINGTON

CITY            SKY/WX      TMP DP  RH  WIND    PRES   REMARKS
#DIXIE 5SE      N/A         27  24  88  SW3     29.79F
#SKI BLUEWOOD   N/A         20  17  88  CALM    29.80F
$$

ORZ009-041-WAZ024-060710-
COLUMBIA RIVER GORGE

CITY            SKY/WX      TMP DP  RH  WIND    PRES   REMARKS
HOOD RIVER AP   MOCLDY      32  32  100 S3      29.99S FOG
THE DALLES AP   CLOUDY      35  32  89  W3      30.02R
6HR MIN TEMP:   33; 6HR MAX TEMP:   39; 6HR PCP:  TRACE;

#ARLINGTON AIRPON/A         33  31  92  CALM    30.02S
#ARLINGTON HS   N/A         32  28  85  CALM    29.92R
#CELILO DOT     N/A         36  30  79  CALM    N/A
#LYLE           N/A         37  34  89  CALM    30.03S
#MOSIER 1S      N/A         34  29  82  CALM    N/A
#MURDOCK        N/A         35  32  89  CALM    29.99S
#SMITHVILLE     N/A         34  32  92  CALM    29.97S

$$

ORZ510-060710-
NORTH CENTRAL OREGON

CITY            SKY/WX      TMP DP  RH  WIND    PRES   REMARKS
#ANTELOPE       N/A         26  24  92  CALM    29.92R
#CHENOWITH 1W   N/A         30  30  100 NW5     N/A
#COW CYN RST AREN/A         27  N/A N/A SW1     N/A
#DUFUR 9E       N/A         27  26  96  CALM    30.06S
#GRASS VALLEY 1SN/A         28  27  96  CALM    29.87S
#KENT DOT       N/A         27  23  85  N1      N/A
#MAUPIN SCHOOL  N/A         33  32  96  CALM    30.00S
#MORO SCHOOL    N/A         29  29  100 SW2     29.93S
#SHANIKO 5WSW   N/A         25  22  88  N6      N/A
#SHANIKO 4NW    N/A         25  24  96  SW3     29.87S
#WAPANITIA AIRPON/A         29  26  88  CALM    30.02S
#WASCO DOT      N/A         32  29  89  CALM    N/A
#WASCO 5NE      N/A         30  28  92  CALM    30.02R
$$

ORZ511-060710-
CENTRAL OREGON

CITY            SKY/WX      TMP DP  RH  WIND    PRES   REMARKS
BEND AIRPORT    LGT MXD PCP 27  27  100 CALM    29.90S
MADRAS AIRPORT  CLOUDY      28  28  100 CALM    29.95R
PRINEVILLE AP   LGT SNOW    30  28  92  SW6     29.91S
REDMOND AIRPORT LGT SNOW    30  26  85  CALM    29.91S FOG
6HR MIN TEMP:   30; 6HR MAX TEMP:   35; 6HR PCP:  0.02;

#ASHWOOD SCHOOL N/A         31  28  88  CALM    29.90R
#BEND 1SW       N/A         27  24  88  CALM    N/A
#BEND-AWBREY    N/A         28  26  92  CALM    30.03R
#BEND-KIM LN    N/A         28  26  92  CALM    29.82S
#CULVER         N/A         29  26  88  CALM    29.95F
#CULVER 8W      N/A         29  26  88  CALM    29.94R
#LAKE BILLY CHINN/A         29  N/A N/A SE1     30.06R
#MADRAS 4S      N/A         N/A N/A N/A CALM    30.00S
#POWELL BUTTE 3EN/A         29  27  92  W3      N/A
#POWELL BUTTE   N/A         29  26  88  SW3     29.88S
#PRINEVILLE 3N  N/A         30  28  92  CALM    30.04S

$$


ORZ509-060710-
EAST SLOPES OF OREGON CASCADES

CITY            SKY/WX      TMP DP  RH  WIND    PRES   REMARKS
SISTERS AWOS    N/A         28  27  96  CALM    29.89R
#BLUE BOX PASS  N/A         23  N/A N/A CALM    N/A
#CAMP SHERMAN   N/A         28  25  88  CALM    30.06F
#LA PINE DOT    N/A         25  23  92  CALM    N/A
#LA PINE 4NW    N/A         25  22  88  CALM    30.09F
#LAVA BUTTE DOT N/A         24  22  92  CALM    N/A
#SISTERS AIRPOR N/A         28  28  100 CALM    30.17S
#SISTERS ODOT   N/A         28  N/A N/A CALM    N/A
#SISTERS 3N     N/A         28  22  78  CALM    29.91S
#SUNRIVER       N/A         26  24  92  S2      30.07S
#SUTTLE LK DOT  N/A         22  22  100 NE13    N/A    WCI 10
#TUMALO 3W      N/A         27  25  92  CALM    29.90F
#WANOGA BUTTE D N/A         20  16  84  NW8     N/A

$$

ORZ044-060710-
LOWER COLUMBIA BASIN...OREGON

CITY            SKY/WX      TMP DP  RH  WIND    PRES   REMARKS
HERMISTON       CLOUDY      34  32  92  SE3     29.97F
6HR MIN TEMP:   34; 6HR MAX TEMP:   39; 6HR PCP:  0.03;

#BOARDMAN SCHOOLN/A         35  33  92  CALM    30.00S
#I-84 EX 198 DOTN/A         33  32  96  W1      N/A
#UMATILLA       N/A         35  31  85  CALM    29.94F
$$

ORZ507-060710-
NORTHERN FOOTHILLS OF THE BLUES

CITY            SKY/WX      TMP DP  RH  WIND    PRES   REMARKS
PENDLETON AIRPT LGT SNOW    31  31  100 S3      29.93F VSB 3/4
6HR MIN TEMP:   31; 6HR MAX TEMP:   35; 6HR PCP:  0.07;

#ADAMS 3WNW     N/A         31  29  92  CALM    30.01S
#ATHENA         N/A         31  28  88  SE1     30.03S
#CAYUSE         N/A         32  28  85  SE5     29.99S
#HELIX SCHOOL   N/A         30  28  92  N7      30.01S
#HELIX 3N       N/A         30  28  92  SE9     29.90S
#HELIX 6SW      N/A         31  29  92  CALM    29.94F
#HOLDMAN 5SE    N/A         32  30  92  CALM    29.94S
#HOLDMAN 6E     N/A         31  30  96  SE3     29.80S
#M-F GROVE ELEM N/A         35  27  72  SW2     29.93F
#M-FREEWATER 5SEN/A         34  25  69  E13     29.93F WCI 25
#PENDLETON DNTN N/A         33  24  69  CALM    29.98S
#PDT AQUATIC CTRN/A         32  29  89  CALM    29.96F
#PDT SUNRIDGE   N/A         32  30  92  CALM    29.96F
#PENDLETON 7NW  N/A         32  29  89  CALM    31.38S
#PILOT ROCK 1S  N/A         32  27  82  CALM    29.93F
#PILOT ROCK     N/A         32  27  82  CALM    29.94F
#UMAPINE 2E     N/A         35  32  89  CALM    29.94F
#WESTON SCHOOL  N/A         31  24  75  SW7     29.81F

$$

ORZ508-060710-
SOUTHERN FOOTHILLS OF THE BLUES

CITY            SKY/WX      TMP DP  RH  WIND    PRES   REMARKS
LEXINGTON       CLOUDY      32  32  100 SW3     29.98R
#AJAX           N/A         27  20  74  CALM    27.69R
#CONDON SCHOOL  N/A         27  26  96  W1      29.86R
#CONDON 5W      N/A         26  24  92  S1      29.85R
#HEPPNER EOC    N/A         31  28  88  W1      29.93S
#HEPPNER 4NE    N/A         29  26  88  SW2     30.01R
#LEXINGTON 2SE  N/A         33  30  89  CALM    29.92R
#MIKKALO        N/A         30  27  88  NW1     30.05S
#OLEX 4N        N/A         31  29  92  SW5     29.95S
#RUGGS 5NE      N/A         27  26  96  W6      30.07R
#RUGGS 2SW      N/A         27  24  88  W3      30.04R

$$

ORZ502-503-060710-
BLUE MOUNTAINS

CITY            SKY/WX      TMP DP  RH  WIND    PRES   REMARKS
MEACHAM         SNOW        24  20  84  CALM    29.85F VSB 1/2
#BATTLE MTN DOT N/A         23  21  92  S8      N/A
#GREENHORN 9SW  N/A         26  23  88  CALM    26.09S
#HEPPNER 15SE   N/A         24  21  88  CALM    29.85S
#LADD CYN SMT   N/A         24  19  81  SE16    N/A    WCI 11
#LADD CREEK ODOTN/A         26  21  81  S8      N/A
#LONG CREEK HS  N/A         28  26  92  W5      29.85S
#N POWDER DOT   N/A         26  19  74  SE17    N/A    WCI 13
#PIKES PEAK     N/A         25  20  81  S13     27.99S WCI 13
#TOLLGATE       N/A         18  17  96  CALM    29.68F
#TROY SCHOOL    N/A         31  28  88  CALM    29.90F
#UKIAH          N/A         26  24  92  CALM    29.94S
#WESTON 4E      N/A         25  23  92  E7      29.97F
$$

ORZ505-060710-
JOHN DAY BASIN

CITY            SKY/WX      TMP DP  RH  WIND    PRES   REMARKS
JOHN DAY        CLOUDY      30  23  75  E3      29.88S
#DAYVILLE SCHOOLN/A         31  27  85  CALM    29.90S
#MITCHELL 8NW   N/A         26  23  88  CALM    29.98S
#MONUMENT HS    N/A         30  27  88  CALM    29.94S
#MT. VERNON 5SE N/A         25  21  84  S2      29.81F
#SPRAY SCHOOL   N/A         30  N/A N/A CALM    N/A
$$

ORZ506-060710-
OCHOCO AND JOHN DAY HIGHLANDS

CITY            SKY/WX      TMP DP  RH  WIND    PRES   REMARKS
#BUCK CREEK DOT N/A         30  25  81  W9      N/A
#HORSE RIDGE DO N/A         27  19  71  W3      N/A
#KEYES SMT DOT  N/A         25  21  84  S13     N/A    WCI 13
#PAULINA SCHOOL N/A         28  25  88  SW3     N/A
#PINE MTN OBS   N/A         18  16  92  CALM    N/A
#SENECA         N/A         22  N/A N/A W2      N/A
#SENECA 9NW     N/A         22  20  92  CALM    30.08F
$$

ORZ049-060710-
GRANDE RONDE VALLEY

CITY            SKY/WX      TMP DP  RH  WIND    PRES   REMARKS
LA GRANDE       CLOUDY      28  18  66  S12     29.90F WCI 18
#COVE           N/A         30  21  69  SE7     29.92F
#COVE SCHOOL    N/A         30  20  66  E7      29.91F
#COVE 6NW       N/A         29  22  75  SE5     30.02F
#ELGIN 3N       N/A         25  18  74  CALM    29.89F
#ELGIN 1E       N/A         28  22  78  CALM    N/A
#IMBLER SCHOOL  N/A         28  22  78  CALM    29.88F
#ISLAND CITY 4N N/A         34  33  96  CALM    30.04S
#LADD CYN DOT   N/A         27  22  81  SW18    N/A    WCI 14
#UNION 1S       N/A         29  23  78  SE10    30.04F
$$

ORZ050-060710-
WALLOWA COUNTY

CITY            SKY/WX      TMP DP  RH  WIND    PRES   REMARKS
JOSEPH AIRPORT  MOCLDY      16  14  92  CALM    29.85F
#IMNAHA SCHOOL  N/A         34  18  51  S3      29.96F
#IMNAHA 10S     N/A         29  16  58  SW8     29.91
#JOSEPH 3N      N/A         17  11  77  CALM    29.89F
#JOSEPH 3W      N/A         17  10  73  CALM    29.68F
#LOSTINE        N/A         21  16  81  CALM    29.86F
#LOSTINE 3SE    N/A         20  15  81  CALM    29.88F
#MT HOWARD 8000 N/A          9   5  83  S9      29.58S
#PROMISE 1S     N/A         21  18  88  CALM    30.17F
#WALLOWA SCHOOL N/A         24  18  77  CALM    29.89F



$$



USA.gov is the U.S. government's official web portal to all federal, state and local government web resources and services.